FW0887 Weather Reports


Display with metric or nautical units.
time (UTC)temp
F
wind
direction
speed
MPH
gust
MPH
rain 1hr
in
rain 24hr
in
rain mn
in
humidity
%
barometer
mb
20260903074543 66 215 0.0 0.0 0.00 0.00 0.00 73 1021.6
20260903073035 64 198 0.0 0.0 0.00 0.00 0.00 80 1021.6
20260903071531 62 198 0.0 0.0 0.00 0.00 0.00 88 1021.6
20260903070438 60 0.0 0.0 0.00 0.00 0.00 92 1022.9
20260903070032 60 197 0.0 0.0 0.00 0.00 0.00 91 1021.7
20260903064525 57 197 0.0 0.0 0.00 0.00 0.00 92 1021.8
20260903063025 54 197 0.0 0.0 0.00 0.00 0.00 91 1022.0
20260903061523 53 198 0.0 0.0 0.00 0.00 0.00 89 1021.9
20260903060417 53 0.0 0.0 0.00 0.00 0.00 89 1022.5
20260903060123 52 215 0.0 0.0 0.00 0.00 0.00 89 1021.9
20260903054531 52 215 0.0 0.0 0.00 0.00 0.00 88 1021.6
20260903053019 52 215 0.0 0.0 0.00 0.00 0.00 88 1021.5
20260903051519 52 215 0.0 0.0 0.00 0.00 0.00 88 1021.4
20260903050429 52 0.0 0.0 0.00 0.00 0.00 88 1022.3
20260903050018 52 215 0.0 0.0 0.00 0.00 0.00 88 1021.3
20260903044517 52 215 0.0 0.0 0.00 0.01 0.00 87 1021.2
20260903043017 52 215 0.0 0.0 0.00 0.01 0.00 87 1021.3
20260903041517 52 215 0.0 0.0 0.00 0.01 0.00 86 1021.2
20260903040404 53 0.0 0.0 0.00 0.01 0.00 86 1022.3
20260903040013 53 215 0.0 0.0 0.00 0.01 0.00 86 1021.3
20260903034514 53 215 0.0 0.0 0.00 0.01 0.00 86 1021.1
20260903033013 54 215 0.0 0.0 0.00 0.01 0.00 86 1021.3
20260903031515 54 215 0.0 0.0 0.00 0.01 0.00 86 1021.3
20260903030342 55 0.0 0.0 0.00 0.01 0.00 85 1022.2
20260903030006 55 215 0.0 0.0 0.00 0.01 0.00 85 1021.3
20260903024504 55 215 0.0 0.0 0.00 0.01 0.00 85 1021.0
20260903023001 56 215 0.0 0.0 0.00 0.01 0.00 85 1021.1
20260903021600 56 215 0.0 0.0 0.00 0.01 0.00 84 1021.0
20260903020404 58 0.0 0.0 0.00 0.01 0.00 84 1022.5
20260903020059 57 215 0.0 0.0 0.00 0.01 0.00 84 1021.0
20260903014608 57 215 0.0 0.0 0.00 0.01 0.00 84 1021.1
20260903013054 58 215 0.0 0.0 0.00 0.01 0.00 84 1021.1
20260903011553 58 215 0.0 0.0 0.00 0.01 0.00 84 1021.0
20260903010355 59 0.0 0.0 0.00 0.01 0.00 84 1022.2
20260903010052 58 215 0.0 0.0 0.00 0.01 0.00 84 1020.9
20260903004550 59 215 0.0 0.0 0.00 0.01 0.00 84 1020.8
20260903003049 59 215 0.0 0.0 0.00 0.01 0.00 85 1020.9
20260903001549 59 215 0.0 0.0 0.00 0.01 0.00 84 1020.9
20260903000326 59 0.0 0.0 0.00 0.01 0.00 84 1022.1
20260903000050 59 215 0.0 0.0 0.00 0.01 0.00 84 1020.8
20260902234548 59 215 0.0 0.0 0.00 0.01 0.00 83 1021.0
20260902233047 59 215 0.0 0.0 0.00 0.01 0.00 83 1021.0
20260902231546 59 215 0.0 0.0 0.00 0.01 0.00 83 1021.1
20260902230417 60 0.0 0.0 0.00 0.01 0.00 84 1022.3
20260902230045 59 215 0.0 0.0 0.00 0.01 0.00 84 1021.1
20260902224547 59 215 0.0 0.0 0.00 0.01 0.00 84 1021.0
20260902223041 59 215 0.0 0.0 0.00 0.01 0.00 83 1021.0
20260902221541 59 215 0.0 0.0 0.00 0.01 0.00 82 1021.1
20260902220328 60 0.0 0.0 0.00 0.01 0.01 81 1022.3
20260902220040 59 215 0.0 0.0 0.00 0.01 0.00 81 1021.1
20260902214542 60 215 0.0 0.0 0.00 0.01 0.01 82 1021.1
20260902213039 60 215 0.0 0.0 0.00 0.01 0.01 82 1021.1
20260902211538 60 215 0.0 0.0 0.00 0.01 0.01 80 1020.9
20260902210257 61 0.0 0.0 0.00 0.01 0.01 79 1022.0
20260902210051 60 215 0.0 0.0 0.00 0.01 0.01 80 1020.9
20260902204537 60 215 0.0 0.0 0.00 0.01 0.01 79 1020.8
20260902203037 61 215 0.0 0.0 0.00 0.01 0.01 77 1020.9
20260902201539 62 215 0.0 0.0 0.00 0.01 0.01 75 1020.7
20260902200329 63 0.0 0.0 0.00 0.01 0.01 74 1021.5
20260902200036 62 215 0.0 0.0 0.00 0.01 0.01 75 1020.6
20260902194539 63 215 0.0 0.0 0.00 0.01 0.01 74 1020.5
20260902193037 64 215 0.0 0.0 0.00 0.01 0.01 71 1020.5
20260902191536 64 215 0.0 0.0 0.00 0.01 0.01 71 1020.3
20260902190257 66 0.0 0.0 0.00 0.01 0.01 68 1020.8
20260902190034 66 215 0.0 1.0 0.00 0.01 0.01 69 1020.2
20260902184533 66 215 0.0 0.0 0.00 0.01 0.01 67 1020.0
20260902183033 67 215 0.0 0.0 0.00 0.01 0.01 65 1019.8
20260902181532 67 215 0.0 0.0 0.00 0.01 0.01 65 1019.6
20260902180330 69 0.0 0.0 0.00 0.01 0.01 64 1020.1
20260902180031 68 215 0.0 0.0 0.00 0.01 0.01 64 1019.6
20260902174531 68 215 0.0 0.0 0.00 0.01 0.01 64 1019.4
20260902173035 68 215 0.0 3.0 0.00 0.01 0.01 67 1019.3
20260902171529 70 215 0.0 3.0 0.00 0.01 0.01 66 1019.1
20260902170256 71 0.0 0.0 0.00 0.01 0.01 65 1020.2
20260902170029 71 214 0.0 2.0 0.00 0.01 0.01 64 1019.2
20260902164533 71 213 0.0 4.0 0.00 0.01 0.01 65 1019.3
20260902163029 72 274 0.0 2.0 0.00 0.01 0.01 63 1019.3
20260902161527 72 273 1.0 3.0 0.00 0.01 0.01 61 1019.3
20260902160328 73 203 2.0 4.0 0.00 0.01 0.01 61 1020.4
20260902160025 72 205 2.0 5.0 0.00 0.01 0.01 61 1019.5
20260902154526 73 265 0.0 8.0 0.00 0.01 0.01 60 1019.4
20260902153027 73 211 2.0 5.0 0.00 0.01 0.01 58 1019.5
20260902151522 73 203 1.0 7.0 0.00 0.01 0.01 60 1019.5
20260902150257 75 0.0 0.0 0.00 0.01 0.01 59 1020.7
20260902150022 75 209 1.0 5.0 0.00 0.01 0.01 58 1019.6
20260902144532 74 246 0.0 4.0 0.00 0.01 0.01 60 1019.6
20260902143021 73 257 2.0 8.0 0.00 0.01 0.01 60 1019.7
20260902141520 74 246 0.0 7.0 0.00 0.01 0.01 61 1019.9
20260902140329 76 225 1.0 4.0 0.00 0.01 0.01 54 1021.1
20260902140023 75 208 2.0 9.0 0.00 0.01 0.01 57 1020.0
20260902134517 76 213 4.0 12.0 0.00 0.01 0.01 56 1020.0
20260902133015 76 209 0.0 8.0 0.00 0.01 0.01 59 1020.0
20260902131519 76 217 6.0 10.0 0.00 0.01 0.01 56 1020.1
20260902130413 76 203 7.0 9.0 0.00 0.01 0.01 57 1021.4
20260902130115 76 229 6.0 10.0 0.00 0.01 0.01 57 1020.2
20260902124509 76 218 2.0 11.0 0.00 0.01 0.01 57 1020.1
20260902123007 75 265 1.0 6.0 0.00 0.01 0.01 61 1020.4
20260902121504 74 222 3.0 7.0 0.00 0.01 0.01 62 1020.6
20260902120301 74 203 4.0 6.0 0.00 0.01 0.01 63 1022.2
20260902120002 73 238 0.0 8.0 0.00 0.01 0.01 63 1020.9
20260902114602 72 197 0.0 7.0 0.00 0.01 0.01 66 1021.1
20260902113100 71 213 1.0 7.0 0.00 0.01 0.01 65 1021.1
20260902111553 70 254 1.0 6.0 0.00 0.01 0.01 67 1021.3
20260902110231 71 203 2.0 3.0 0.00 0.01 0.01 67 1022.6
20260902110053 70 204 2.0 5.0 0.00 0.01 0.01 66 1021.4
20260902104556 71 192 2.0 6.0 0.00 0.01 0.01 67 1021.4
20260902103101 72 171 1.0 6.0 0.00 0.01 0.01 66 1021.5
20260902101549 71 217 2.0 6.0 0.00 0.01 0.01 66 1021.7
20260902100203 70 0.0 0.0 0.00 0.01 0.01 69 1022.9
20260902094543 69 209 0.0 0.0 0.00 0.01 0.01 67 1021.8
20260902093044 69 207 0.0 0.0 0.00 0.01 0.01 68 1022.0
20260902091600 68 213 0.0 0.0 0.00 0.01 0.01 70 1022.0
20260902090255 66 0.0 0.0 0.00 0.01 0.01 75 1023.0
20260902090036 67 213 0.0 0.0 0.00 0.01 0.01 74 1022.1
20260902084540 65 198 0.0 0.0 0.00 0.01 0.01 76 1022.0
20260902083028 64 270 0.0 0.0 0.00 0.01 0.01 79 1021.9
20260902081532 63 271 0.0 0.0 0.00 0.01 0.01 81 1022.0
20260902080206 62 0.0 0.0 0.00 0.01 0.01 88 1022.8
20260902080022 62 244 0.0 0.0 0.00 0.01 0.01 87 1021.7